sat.trackr.live / text

‹ back to catalog

SPACEMOBILE-004

NORAD 61049 · 2024-163E

PAYLOAD ACTIVE UNKNOWN

§ Identity

Operator
Country
US
Launch date
2024-09-12
Launch site
AFETR
Launch vehicle
Mass (kg)
RCS (m²)

External: N2YO · Heavens-Above · Gunter

§ Orbital elements

Epoch: 2026-09-22T10:31:34.281408Z

Period
94.71 min
Inclination
52.9752°
Eccentricity
0.0009465
Mean motion
15.20450929 rev/d
Perigee alt
498.0 km
Apogee alt
511.0 km
Semi-major
6,882.6 km
B*
5.2066e-4
RAAN
221.8070°
Arg perigee
75.0583°
Mean anomaly
285.1458°
Rev number
11,256

§ Raw data

SPACEMOBILE-0041 61049U 24163E   26265.43859122  .00011208  00000+0  52066-3 0  99942 61049  52.9752 221.8070 0009465  75.0583 285.1458 15.20450929112569

JSON: /api/v1/satellites/61049 · /tle

For live sub-satellite position, see the globe view (requires WebGL).

§ Visibility from observer

Set your observer location to see the next 7 days of passes ≥ 10°. The values pass through the URL so the page stays shareable.

No JS? Fill the form by hand. The geolocation button needs JavaScript.

§ Radio — SatNOGS DB

ModeDescriptionDownlinkUplink
GFSK Mode U - Transmitter 432.300 MHz
BPSK S-band telemetry 2.235 GHz

2 transmitters · refreshed weekly from db.satnogs.org